Wind_Speed
14 13 12 11 8 5 4 6 7 7 9 10 9 11 12 11 11 13 14 13 14 14 15 14 14 13 12 11 9 8 7 7 7 7 7 8 9 10 11 12 13 13 14 14 14 13 13 12 11
13 12 11 9 6 6 5 4 3 5 8 7 5 8 11 11 10 13 12 12 13 13 13 13 12 10 9 8 7 6 5 5 5 6 6 6 6 7 9 10 11 12 12 13 13 12 12 12 11
13 13 12 9 7 7 3 2 2 1 4 5 5 5 9 9 10 11 11 12 12 12 11 11 10 9 8 7 6 5 4 3 4 4 5 5 5 6 7 9 10 11 11 12 12 12 11 12 11
13 13 12 10 9 5 1 1 1 3 1 4 6 6 7 8 8 9 9 10 10 10 9 8 7 6 5 4 3 2 2 2 3 4 5 5 5 6 7 8 9 10 11 12 12 12 12 11 11
11 12 12 10 10 4 1 3 3 3 4 6 8 9 8 8 8 8 8 7 7 7 7 6 5 4 2 1 0 1 2 3 4 5 5 6 6 7 8 9 10 11 12 12 13 13 13 12 12
9 10 10 9 10 7 2 4 6 5 5 7 9 10 11 10 9 9 7 6 5 4 4 4 3 2 2 2 2 3 4 5 6 7 8 8 8 9 10 10 11 11 12 13 14 14 14 14 13
7 7 9 9 10 6 3 5 8 7 6 7 10 11 12 12 11 11 9 7 6 5 5 4 4 4 4 4 5 5 6 7 8 9 9 10 10 11 11 11 12 12 13 14 15 15 15 15 15
9 9 11 13 12 7 4 8 11 10 7 7 10 12 13 12 12 12 12 9 9 8 8 7 6 6 6 6 6 7 8 9 10 11 10 11 11 12 12 12 12 13 13 14 15 15 15 16 16
12 12 14 15 15 11 7 11 12 11 8 7 9 12 13 13 12 12 13 12 11 11 10 9 8 8 8 7 8 9 10 11 11 11 11 11 11 11 12 12 12 13 14 15 15 15 15 16 17
17 16 17 19 18 17 13 12 13 11 9 9 10 12 13 12 12 12 13 13 13 13 12 12 11 11 11 11 11 12 12 12 11 10 10 10 10 11 11 12 13 14 15 15 16 16 16 17 18
21 19 22 23 23 21 18 15 15 13 10 11 13 13 13 13 12 12 12 14 14 14 14 14 14 14 14 15 15 14 13 12 11 10 10 10 10 11 12 13 14 15 16 16 17 17 17 18 18
26 24 25 26 27 25 22 19 20 18 14 14 16 16 15 15 13 13 13 14 15 16 17 17 18 18 17 17 17 16 15 14 13 11 11 11 11 12 13 14 15 16 18 18 18 18 18 18 19
29 27 28 30 30 28 26 24 25 24 21 18 18 19 19 18 17 16 16 16 16 17 19 19 20 20 19 19 18 18 18 17 16 15 15 14 14 13 14 15 16 19 21 22 23 22 20 19 20
32 31 31 32 32 31 29 28 28 28 26 25 23 21 22 22 22 21 20 20 20 20 21 21 21 21 20 20 20 19 18 18 18 18 18 18 17 17 16 17 19 21 22 24 24 24 22 20 21
35 35 33 32 32 31 31 31 30 30 30 29 27 26 25 25 25 25 25 25 25 24 24 24 24 24 23 23 23 23 22 21 21 21 21 21 22 21 21 21 22 23 24 25 25 25 23 23 23
34 34 32 32 32 31 33 33 30 32 33 31 30 30 30 29 28 30 31 30 30 29 28 28 28 28 27 27 27 27 26 26 25 25 25 26 26 26 25 25 26 27 27 27 28 28 26 27 25
29 28 27 28 28 27 31 32 29 32 35 35 34 34 34 34 33 34 35 34 34 33 32 31 31 31 31 30 30 30 30 30 29 29 29 29 30 29 29 30 30 31 31 31 31 31 30 29 28
23 25 27 27 24 26 30 31 27 29 34 36 37 38 38 38 37 37 36 36 37 37 35 34 34 34 34 33 33 33 32 32 32 32 32 32 32 32 33 33 34 34 34 34 34 34 33 32 31
24 26 27 25 24 27 30 30 26 26 31 35 38 39 40 40 41 41 39 39 40 39 37 37 37 37 37 36 35 35 35 36 36 36 36 36 35 35 35 35 36 36 37 37 38 37 36 36 34
25 26 27 25 23 25 26 25 25 27 31 34 37 39 40 41 41 41 41 38 37 35 36 37 38 39 38 38 38 38 38 38 39 40 40 38 37 36 35 35 36 38 39 40 41 41 40 39 37
27 28 28 28 26 27 27 26 26 28 32 35 37 41 43 43 43 44 43 42 42 40 39 39 40 41 40 40 40 40 40 40 41 41 40 39 38 37 37 37 38 40 41 42 42 43 42 41 39
30 30 31 30 29 30 31 31 30 32 36 39 42 44 45 46 46 44 43 42 42 41 41 40 41 42 41 41 41 40 40 40 40 40 40 39 39 39 39 40 41 42 42 43 43 44 44 42 40
31 32 33 33 33 33 34 38 37 38 40 42 45 46 46 46 45 43 42 41 41 41 41 40 40 41 40 40 41 40 40 39 38 38 38 38 39 39 41 42 42 42 43 43 44 44 44 42 40
27 28 30 32 33 34 34 40 43 42 44 45 47 47 47 46 45 44 43 43 43 42 40 38 38 38 38 38 38 38 38 37 37 37 37 38 39 41 42 44 44 43 43 43 42 42 42 41 39
19 21 22 25 28 31 30 36 42 43 45 47 49 49 49 49 49 48 47 46 45 43 40 39 38 37 37 37 37 37 37 37 38 38 39 40 42 43 44 45 45 44 43 42 40 40 39 38 37
17 19 22 25 25 26 27 31 34 37 41 44 47 49 50 50 50 52 52 51 50 48 45 43 42 41 40 40 40 40 40 40 40 41 42 43 44 45 45 45 44 43 41 39 37 36 36 35 35
18 20 22 26 27 28 27 28 32 35 38 41 44 46 48 49 50 52 54 54 53 51 50 49 47 46 45 45 45 45 44 44 44 44 45 45 46 46 45 43 41 39 36 34 33 32 32 32 32
18 18 20 24 28 30 31 31 32 35 38 41 43 45 47 50 51 51 52 52 52 51 52 51 49 48 47 47 47 46 45 45 45 46 46 45 44 43 41 38 35 33 32 30 29 29 28 28 29
16 18 19 22 26 31 35 35 35 37 40 42 44 45 45 46 48 49 49 48 48 45 44 45 45 44 44 44 44 44 43 43 43 43 42 41 39 38 36 34 33 31 30 28 27 27 26 26 25
17 19 21 24 27 30 35 38 36 37 38 41 44 45 46 45 43 42 41 40 40 39 36 36 38 39 39 38 38 38 39 39 39 38 37 36 36 35 34 33 32 31 30 29 27 26 26 25 24
Wind_Direction
144 139 137 134 123 126 95 77 74 78 75 74 79 84 92 103 108 104 105 103 101 99 98 98 97 95 91 88 82 71 58 47 41 36 38 40 40 37 32 28 25 25 25 25 28 33 36 38 38
158 153 152 147 154 169 134 91 70 90 98 104 108 104 108 113 112 112 114 112 108 105 104 102 100 97 94 90 85 74 57 38 28 22 24 29 30 28 24 20 16 15 15 16 17 20 25 28 30
171 170 170 167 189 195 153 91 25 56 111 138 155 143 131 131 128 126 127 122 119 117 114 111 108 106 103 99 92 81 63 40 23 14 12 11 10 10 9 8 5 2 2 3 4 5 9 14 18
180 183 188 193 211 201 160 47 298 278 206 193 190 186 167 161 157 146 142 134 131 131 130 128 126 122 117 112 103 84 54 22 6 359 1 357 350 348 347 349 351 350 349 349 351 352 353 357 1
185 191 195 208 227 212 247 325 289 262 245 224 215 208 198 192 192 175 164 153 148 147 147 149 150 147 143 130 71 353 337 331 329 331 338 342 340 336 334 333 334 335 336 337 338 342 343 345 347
185 194 195 213 240 231 229 306 298 275 256 242 231 225 217 210 215 210 196 192 187 184 183 184 194 212 249 290 311 318 321 323 325 326 329 334 336 336 335 331 326 324 325 327 328 331 335 337 339
193 193 189 212 229 228 254 296 290 265 251 253 242 235 231 222 223 234 230 226 229 229 233 235 248 264 278 294 305 314 321 326 329 330 332 337 341 343 342 337 332 328 324 322 323 323 325 329 332
199 199 198 213 220 228 269 277 279 276 267 252 244 236 232 232 227 239 247 245 252 253 252 256 262 272 278 288 300 309 317 323 327 327 332 338 344 351 356 353 348 341 334 327 322 320 319 322 325
207 210 216 224 232 239 249 265 269 273 271 253 244 241 235 234 230 236 249 253 255 259 260 264 267 271 276 284 297 303 309 315 320 323 328 337 345 355 1 2 357 352 344 334 325 318 314 315 317
215 213 220 231 238 247 254 269 269 259 260 257 249 244 240 237 233 237 248 254 254 257 262 268 268 269 272 278 289 298 305 308 312 316 322 331 340 349 354 355 356 353 348 339 328 318 311 309 308
223 220 222 232 239 248 257 265 267 260 255 250 246 244 243 241 237 238 245 252 257 258 260 265 267 269 273 280 287 293 300 305 304 305 309 315 326 334 339 347 349 346 345 340 331 318 308 304 302
230 225 229 234 242 250 256 259 264 264 260 251 250 249 249 249 246 244 246 252 258 263 263 264 267 270 273 278 285 289 291 293 297 298 300 302 311 320 327 334 335 335 337 334 330 323 308 298 295
234 231 231 233 241 248 254 257 261 265 264 259 255 253 253 254 255 254 254 253 255 260 264 265 266 269 273 278 283 287 290 294 298 299 298 299 302 308 314 320 325 330 333 333 328 325 314 299 290
240 237 235 235 241 247 251 255 259 263 265 263 261 256 254 256 256 256 257 257 256 257 259 262 264 266 269 273 277 282 289 295 296 297 298 299 299 300 303 306 314 321 326 329 331 330 322 311 297
244 244 243 245 249 252 253 254 258 262 263 263 262 260 258 258 257 258 259 259 259 259 261 263 265 267 269 272 276 280 285 289 293 296 298 297 298 300 303 307 313 318 321 324 326 328 327 322 309
245 247 249 249 251 252 254 256 257 260 261 261 261 260 260 259 258 259 260 260 260 261 262 264 267 270 272 276 280 283 286 290 293 296 298 299 301 303 306 309 311 314 317 318 320 322 319 320 316
243 246 247 245 245 245 250 254 251 255 260 260 260 260 261 261 260 260 261 261 260 260 262 265 268 272 275 278 281 285 288 291 294 296 297 299 300 302 305 307 308 310 312 314 314 316 316 316 315
239 240 239 237 237 241 246 248 245 250 256 260 260 261 262 263 265 264 262 263 264 262 261 264 267 271 275 278 281 284 287 290 292 293 294 296 297 299 300 302 303 305 307 309 309 311 311 311 312
237 239 240 239 238 245 248 250 247 249 253 256 259 261 262 263 266 267 267 268 267 262 260 261 265 269 272 275 279 282 284 286 288 290 292 294 295 296 297 298 299 300 302 303 304 305 306 306 305
243 244 245 242 239 244 249 250 247 247 251 255 259 262 264 267 269 270 271 270 269 268 264 262 262 264 267 270 275 279 282 284 286 288 290 291 293 293 293 293 294 296 297 299 300 301 301 300 300
249 249 248 246 238 240 244 244 242 243 248 253 259 264 268 271 272 273 273 272 270 272 270 268 267 267 268 268 271 275 278 281 282 284 286 288 289 290 290 292 293 294 295 296 296 297 296 296 295
251 253 253 252 245 239 242 241 238 239 245 252 257 262 266 269 271 272 272 273 272 272 271 269 268 268 269 268 270 273 276 278 280 281 283 285 287 289 290 291 292 293 293 293 293 293 293 292 291
258 259 259 259 255 247 242 246 243 243 246 253 259 263 266 268 270 270 271 272 273 272 272 270 269 268 268 270 272 275 276 277 279 280 282 284 286 289 291 292 293 293 292 291 291 290 289 288 287
263 264 264 264 262 257 248 248 251 248 252 256 261 264 266 268 268 269 270 270 271 270 271 271 272 271 271 272 274 276 277 278 279 280 282 284 286 289 290 292 292 292 291 290 289 288 286 285 283
267 270 269 266 264 264 260 254 255 254 253 255 258 261 263 265 266 267 268 269 268 268 269 270 270 272 273 273 274 275 277 278 279 281 282 284 286 288 289 291 291 291 290 289 287 286 284 282 281
271 274 276 277 273 269 265 264 264 261 259 257 258 260 262 263 264 264 266 267 267 268 268 267 267 269 271 273 274 275 276 277 279 281 283 285 286 288 289 290 290 290 289 288 287 285 283 283 281
278 277 281 283 284 282 278 273 268 267 265 264 262 261 261 261 262 263 265 265 266 267 266 266 265 266 268 271 273 274 274 276 278 280 283 284 286 287 288 289 289 289 289 287 286 285 285 284 282
286 286 284 284 287 288 287 284 279 274 271 268 267 265 264 262 262 263 265 266 266 266 265 263 262 263 266 269 271 272 273 274 276 278 281 282 284 285 287 288 289 289 288 287 285 286 287 287 286
291 293 295 296 296 296 296 293 291 284 279 275 271 269 267 265 263 263 264 264 265 269 265 260 259 262 266 268 269 270 270 272 274 276 279 280 282 283 285 287 288 287 287 286 285 286 287 288 290
296 300 301 303 305 305 305 306 302 293 286 281 276 271 267 266 264 263 262 264 265 266 267 263 261 262 264 267 268 268 269 271 273 275 277 278 280 281 283 285 285 284 284 283 283 285 285 286 288
Height
5924 5924 5925 5926 5927 5927 5926 5926 5926 5928 5930 5930 5929 5929 5930 5930 5930 5932 5930 5928 5929 5929 5929 5929 5930 5930 5930 5930 5931 5931 5931 5931 5931 5930 5929 5928 5927 5926 5925 5924 5922 5920 5919 5917 5916 5915 5913 5912 5910
5924 5924 5926 5926 5926 5926 5927 5927 5927 5929 5931 5931 5931 5931 5931 5930 5931 5931 5930 5930 5930 5930 5930 5931 5931 5932 5932 5932 5932 5932 5932 5932 5932 5931 5930 5929 5928 5927 5926 5925 5924 5922 5920 5919 5917 5916 5914 5913 5911
5923 5924 5926 5925 5925 5926 5927 5927 5927 5929 5931 5932 5933 5933 5933 5932 5931 5932 5932 5931 5931 5932 5932 5932 5932 5933 5933 5933 5933 5933 5933 5933 5933 5932 5931 5930 5929 5928 5927 5926 5925 5923 5921 5920 5918 5916 5915 5914 5912
5923 5924 5925 5926 5924 5925 5926 5927 5927 5929 5931 5932 5933 5933 5934 5933 5932 5932 5932 5932 5932 5933 5933 5933 5933 5933 5933 5933 5934 5934 5933 5933 5933 5932 5931 5931 5930 5929 5928 5927 5925 5924 5922 5920 5919 5917 5915 5914 5913
5923 5924 5925 5924 5924 5924 5924 5925 5927 5928 5929 5931 5932 5933 5934 5934 5932 5933 5933 5933 5933 5933 5933 5933 5934 5934 5934 5934 5934 5934 5934 5933 5933 5932 5931 5931 5930 5929 5928 5927 5926 5924 5923 5921 5919 5917 5915 5914 5913
5923 5924 5925 5925 5924 5923 5924 5924 5925 5927 5928 5929 5931 5931 5933 5934 5933 5933 5933 5933 5933 5934 5933 5934 5934 5934 5934 5934 5934 5934 5933 5933 5932 5932 5931 5930 5930 5929 5928 5926 5925 5924 5922 5921 5919 5917 5915 5913 5912
5924 5924 5924 5925 5923 5922 5923 5924 5924 5925 5927 5928 5929 5930 5931 5934 5934 5932 5933 5934 5933 5934 5934 5934 5934 5934 5934 5933 5933 5933 5933 5932 5932 5931 5930 5929 5929 5928 5927 5926 5924 5923 5922 5920 5918 5917 5915 5913 5911
5922 5924 5923 5922 5921 5921 5921 5922 5922 5923 5925 5926 5927 5927 5929 5932 5934 5932 5932 5933 5933 5933 5933 5933 5933 5933 5933 5932 5932 5932 5932 5931 5931 5930 5929 5928 5928 5927 5926 5925 5923 5922 5921 5919 5917 5916 5914 5912 5911
5920 5923 5921 5920 5920 5919 5919 5920 5921 5921 5923 5924 5925 5925 5926 5929 5932 5931 5930 5932 5932 5932 5932 5932 5932 5932 5932 5931 5931 5931 5930 5930 5929 5928 5928 5927 5926 5925 5924 5923 5922 5921 5919 5918 5916 5914 5913 5911 5909
5918 5920 5919 5918 5918 5918 5917 5918 5919 5920 5921 5922 5923 5923 5924 5926 5929 5930 5929 5930 5931 5931 5931 5931 5931 5930 5930 5930 5929 5929 5928 5928 5927 5926 5926 5925 5923 5923 5922 5921 5919 5918 5917 5915 5914 5912 5910 5909 5907
5915 5917 5915 5915 5914 5915 5916 5916 5916 5918 5920 5920 5921 5921 5922 5923 5926 5927 5927 5927 5928 5929 5929 5929 5928 5928 5928 5928 5927 5926 5926 5925 5925 5924 5923 5922 5921 5920 5919 5917 5916 5915 5914 5912 5911 5909 5907 5905 5904
5910 5913 5912 5912 5911 5912 5913 5914 5914 5915 5918 5919 5919 5920 5920 5921 5923 5925 5925 5925 5925 5925 5925 5926 5925 5925 5925 5925 5924 5924 5923 5922 5922 5922 5921 5920 5919 5917 5916 5915 5914 5912 5911 5909 5907 5905 5903 5901 5900
5904 5908 5908 5907 5907 5909 5910 5911 5910 5911 5914 5916 5917 5918 5919 5919 5920 5921 5922 5923 5923 5923 5922 5922 5922 5922 5921 5921 5920 5920 5919 5918 5918 5918 5917 5917 5916 5915 5914 5912 5911 5909 5907 5905 5903 5900 5898 5897 5895
5898 5900 5902 5903 5903 5905 5907 5908 5908 5908 5910 5911 5913 5915 5916 5916 5916 5917 5918 5918 5919 5920 5919 5918 5919 5918 5918 5918 5917 5917 5916 5915 5914 5914 5913 5912 5912 5912 5911 5910 5908 5906 5903 5901 5899 5896 5894 5892 5891
5891 5894 5898 5900 5900 5901 5902 5903 5904 5904 5905 5906 5908 5910 5912 5912 5912 5913 5913 5913 5913 5914 5914 5913 5913 5914 5914 5913 5913 5912 5912 5911 5911 5909 5908 5908 5907 5907 5906 5904 5903 5901 5899 5897 5895 5892 5890 5888 5886
5884 5888 5892 5895 5895 5896 5896 5897 5900 5897 5898 5901 5903 5904 5906 5906 5907 5907 5907 5907 5907 5908 5908 5908 5907 5907 5907 5907 5906 5906 5905 5905 5904 5903 5902 5901 5901 5900 5899 5898 5897 5895 5894 5892 5890 5888 5885 5883 5881
5878 5881 5883 5885 5886 5887 5887 5889 5892 5891 5891 5893 5896 5898 5898 5899 5900 5900 5900 5900 5900 5900 5901 5901 5901 5900 5900 5900 5899 5899 5898 5898 5898 5897 5896 5895 5894 5893 5892 5892 5890 5889 5887 5886 5884 5882 5880 5878 5875
5872 5873 5875 5877 5878 5878 5878 5880 5883 5884 5883 5885 5887 5889 5890 5891 5892 5892 5892 5892 5893 5892 5893 5893 5893 5893 5893 5893 5892 5892 5892 5891 5891 5890 5890 5889 5888 5887 5886 5885 5884 5882 5881 5879 5878 5876 5874 5872 5870
5865 5866 5868 5870 5871 5872 5872 5873 5876 5877 5877 5878 5879 5880 5882 5883 5884 5884 5884 5884 5884 5884 5884 5885 5885 5884 5885 5885 5885 5885 5885 5884 5884 5883 5882 5882 5881 5880 5879 5878 5877 5875 5874 5872 5871 5869 5867 5865 5863
5861 5862 5863 5865 5866 5867 5867 5868 5869 5870 5871 5871 5872 5872 5873 5874 5875 5875 5875 5875 5874 5873 5874 5874 5874 5875 5876 5876 5877 5877 5877 5877 5876 5875 5874 5873 5873 5872 5871 5870 5869 5868 5866 5865 5863 5861 5859 5857 5856
5857 5858 5858 5859 5861 5862 5863 5864 5864 5865 5866 5866 5866 5865 5865 5865 5866 5866 5867 5868 5867 5866 5866 5866 5865 5865 5866 5867 5868 5868 5868 5868 5868 5867 5866 5865 5864 5864 5863 5862 5861 5859 5858 5856 5854 5852 5850 5849 5847
5851 5851 5852 5853 5856 5857 5858 5859 5861 5860 5860 5860 5859 5858 5857 5857 5856 5856 5856 5856 5856 5856 5856 5856 5855 5856 5856 5857 5858 5859 5860 5860 5859 5859 5858 5857 5856 5855 5854 5853 5852 5851 5849 5847 5845 5842 5840 5839 5837
5844 5845 5846 5847 5849 5851 5853 5852 5855 5854 5854 5853 5851 5850 5849 5848 5847 5846 5846 5846 5845 5845 5844 5844 5845 5846 5846 5847 5848 5849 5850 5851 5850 5850 5849 5848 5847 5846 5845 5843 5842 5841 5839 5837 5835 5832 5830 5828 5827
5837 5838 5839 5839 5840 5842 5845 5844 5844 5847 5846 5846 5844 5842 5840 5839 5838 5837 5836 5836 5835 5834 5833 5833 5834 5836 5837 5838 5839 5839 5840 5841 5841 5841 5841 5840 5839 5837 5836 5834 5832 5830 5828 5826 5824 5822 5820 5818 5817
5833 5833 5832 5832 5832 5832 5835 5835 5835 5836 5836 5835 5834 5832 5831 5830 5828 5827 5826 5825 5823 5822 5823 5825 5826 5827 5828 5829 5830 5830 5831 5831 5831 5832 5831 5831 5830 5828 5826 5824 5822 5820 5818 5816 5814 5812 5810 5808 5807
5829 5828 5828 5826 5825 5825 5826 5825 5826 5824 5824 5823 5822 5821 5819 5818 5817 5816 5815 5814 5813 5813 5814 5815 5816 5818 5819 5819 5820 5821 5821 5822 5822 5822 5822 5821 5820 5818 5816 5814 5812 5810 5807 5806 5804 5802 5801 5799 5797
5824 5823 5822 5820 5818 5817 5817 5817 5815 5813 5812 5811 5810 5808 5807 5806 5804 5803 5803 5803 5802 5802 5803 5804 5806 5807 5809 5809 5810 5810 5811 5811 5811 5811 5811 5810 5809 5807 5805 5803 5801 5800 5798 5796 5795 5793 5792 5790 5789
5819 5818 5817 5814 5811 5808 5807 5807 5806 5804 5801 5799 5796 5794 5793 5792 5791 5790 5790 5790 5791 5790 5791 5792 5794 5796 5797 5798 5799 5799 5800 5800 5801 5801 5800 5799 5798 5796 5795 5793 5792 5791 5789 5788 5787 5785 5784 5783 5781
5815 5813 5811 5808 5806 5802 5797 5799 5797 5793 5789 5786 5783 5781 5779 5778 5777 5777 5777 5777 5778 5779 5779 5779 5781 5784 5786 5787 5788 5788 5789 5789 5790 5791 5790 5789 5788 5787 5786 5785 5784 5782 5781 5780 5779 5778 5777 5775 5774
5810 5809 5806 5803 5800 5795 5790 5789 5784 5780 5776 5772 5769 5766 5764 5764 5763 5763 5763 5765 5766 5768 5769 5770 5771 5773 5775 5776 5777 5778 5779 5780 5780 5780 5780 5780 5779 5778 5777 5776 5776 5774 5774 5773 5772 5771 5770 5769 5767